This demonstration page uses our WeatherBlox Daily Observations layout. Learn more.

Left ArrowRight Arrow

39.01783, -85.05884

Hourly Observations for October 6, 2022

Temp ( °F °C ) Dew Point ( °F °C ) Humidity (%) Winds ( mph kmh ) Pressure ( in mb ) Visibility ( mi km ) Precip ( " mm )
12:52 am 00:52 Clear 51 10.6 45 7.2 79 79 Calm 30.06 1018 10 16 0.00 0.00
1:52 am 01:52 Clear 50 10 46 7.8 86 86 Calm 30.06 1018 10 16 0.00 0.00
2:52 am 02:52 Clear 52 11.1 43 6.1 71 71 Calm 30.06 1018 10 16 0.00 0.00
3:52 am 03:52 Partly Cloudy 51 10.6 44 6.7 77 77 Calm 30.05 1018 10 16 0.00 0.00
4:52 am 04:52 Clear 52 11.1 45 7.2 77 77 Calm 30.04 1017 10 16 0.00 0.00
5:52 am 05:52 Mostly Cloudy 52 11.1 46 7.8 80 80 Calm 30.04 1017 10 16 0.00 0.00
6:52 am 06:52 Cloudy 51 10.6 47 8.3 86 86 S 3 6 30.05 1018 9 14 0.00 0.00
7:52 am 07:52 Mostly Cloudy 51 10.6 48 8.9 89 89 Calm 30.06 1018 8 13 0.00 0.00
8:52 am 08:52 Mostly Cloudy 53 11.7 45 7.2 74 74 SSW 3 6 30.07 1018 9 14 0.00 0.00
9:52 am 09:52 Mostly Cloudy 58 14.4 45 7.2 62 62 SW 5 7 30.09 1019 10 16 0.00 0.00
10:52 am 10:52 Cloudy 62 16.7 45 7.2 53 53 Calm 30.08 1019 9 14 0.00 0.00
11:52 am 11:52 Cloudy 64 17.8 46 7.8 52 52 SSW 3 6 30.07 1018 10 16 0.00 0.00
12:52 pm 12:52 Mostly Cloudy 70 21.1 45 7.2 41 41 NW 5 7 30.06 1018 10 16 0.00 0.00
1:52 pm 13:52 Partly Cloudy 70 21.1 48 8.9 46 46 SW 7 11 30.04 1017 10 16 0.00 0.00
2:52 pm 14:52 Mostly Sunny 74 23.3 42 5.6 32 32 SSW 10 17 30.02 1017 10 16 0.00 0.00
3:52 pm 15:52 Mostly Cloudy 73 22.8 45 7.2 37 37 SSW 9 15 30.01 1016 10 16 0.00 0.00
4:52 pm 16:52 Mostly Cloudy 73 22.8 43 6.1 34 34 SW 10 17 30.01 1016 10 16 0.00 0.00
5:52 pm 17:52 Mostly Cloudy 72 22.2 45 7.2 38 38 SW 6 9 30.01 1016 10 16 0.00 0.00
6:52 pm 18:52 Mostly Sunny 68 20 47 8.3 47 47 SSW 5 7 30.01 1016 10 16 0.00 0.00
7:52 pm 19:52 Mostly Clear 64 17.8 47 8.3 54 54 S 3 6 30.02 1017 10 16 0.00 0.00
8:52 pm 20:52 Mostly Clear 62 16.7 47 8.3 58 58 S 5 7 30.03 1017 10 16 0.00 0.00
9:52 pm 21:52 Clear 60 15.6 47 8.3 62 62 S 6 9 30.03 1017 10 16 0.00 0.00
10:52 pm 22:52 Clear 57 13.9 46 7.8 67 67 S 7 11 30.04 1017 10 16 0.00 0.00
11:52 pm 23:52 Clear 59 15 46 7.8 62 62 Calm 30.04 1017 10 16 0.00 0.00

Powered by AerisWeather